Location: Unspecified
(0.0000°N, 0.0000°E)
Time: 09:41:34
(UTC+00:00)

Vanguard 2 Rocket - All Passes

Search period start: 18 September 2014 00:00
Search period end: 28 September 2014 00:00
Orbit: 554 x 3336 km, 32.9° (Epoch: 17 September)

Date Brightness Start Highest point End Pass type
(mag) Time Alt. Az. Time Alt. Az. Time Alt. Az.
18 Sep - 05:43:33 10° SSW 05:52:48 25° SE 06:05:45 10° E daylight
18 Sep - 07:55:19 10° SW 08:10:09 70° SE 08:30:34 10° ENE daylight
18 Sep - 10:11:22 10° WSW 10:29:15 57° NW 10:48:24 10° NE daylight
18 Sep - 12:35:10 10° WNW 12:50:06 25° NNW 13:02:53 10° NNE daylight
18 Sep - 15:08:48 10° NNW 15:12:19 11° N 15:15:30 10° N daylight
18 Sep - 17:29:35 10° N 17:32:30 12° N 17:35:02 10° NNE daylight
18 Sep - 19:42:36 10° NW 19:48:44 35° NNE 19:52:53 10° E visible
18 Sep - 21:58:14 10° W 22:01:44 22° SW 22:04:52 10° SSE night (unlit)
19 Sep - 04:47:11 10° S 04:52:50 15° SE 04:59:57 10° ESE visible
19 Sep - 06:56:59 10° SW 07:09:39 52° SE 07:28:28 10° ENE daylight
19 Sep - 09:11:12 10° WSW 09:27:51 71° NW 09:48:18 10° NE daylight
19 Sep - 11:31:35 10° W 11:48:18 33° NNW 12:03:58 10° NNE daylight
19 Sep - 14:02:04 10° NW 14:10:39 15° NNW 14:17:55 10° NNE daylight
19 Sep - 16:29:08 10° N 16:32:17 11° N 16:35:02 10° NNE daylight
19 Sep - 18:43:24 10° NNW 18:49:55 24° NNE 18:54:22 10° ENE visible
19 Sep - 20:58:27 10° WNW 21:03:48 50° SW 21:07:44 10° SE visible
20 Sep - 05:59:13 10° SSW 06:09:38 36° SE 06:25:22 10° E daylight
20 Sep - 08:11:52 10° SW 08:26:46 89° NW 08:47:32 10° NE daylight
20 Sep - 10:29:30 10° W 10:46:32 42° NNW 11:04:31 10° NE daylight
20 Sep - 12:56:12 10° WNW 13:08:38 19° NNW 13:19:20 10° NNE daylight
20 Sep - 15:26:40 10° NNW 15:31:24 12° N 15:35:29 10° NNE daylight
20 Sep - 17:43:50 10° NNW 17:50:36 20° NNE 17:55:25 10° ENE daylight
20 Sep - 19:58:51 10° NW 20:05:45 79° NE 20:10:10 10° ESE visible
21 Sep - 05:02:08 10° S 05:09:58 23° SE 05:21:10 10° E visible
21 Sep - 07:13:14 10° SW 07:26:10 72° SE 07:46:02 10° ENE daylight
21 Sep - 09:28:41 10° WSW 09:44:55 53° NNW 10:04:33 10° NE daylight
21 Sep - 11:51:36 10° WNW 12:06:28 25° NNW 12:20:13 10° NNE daylight
21 Sep - 14:22:27 10° NNW 14:29:51 14° N 14:36:08 10° NNE daylight
21 Sep - 16:43:40 10° NNW 16:50:44 17° NNE 16:56:00 10° NE daylight
21 Sep - 18:59:10 10° NW 19:07:18 47° NNE 19:12:15 10° ESE visible
21 Sep - 21:16:23 10° W 21:20:19 21° SW 21:23:31 10° S visible
22 Sep - 04:06:33 10° SSE 04:10:30 13° SE 04:15:15 10° ESE visible
22 Sep - 06:15:11 10° SW 06:26:08 53° SE 06:43:47 10° ENE daylight
22 Sep - 08:28:52 10° WSW 08:43:37 67° NW 09:04:01 10° NE daylight
22 Sep - 10:48:32 10° W 11:04:20 31° NNW 11:20:40 10° NNE daylight
22 Sep - 13:17:20 10° NW 13:27:45 16° N 13:36:42 10° NNE daylight
22 Sep - 15:42:38 10° NNW 15:50:15 16° N 15:56:09 10° NE daylight
22 Sep - 17:59:16 10° NW 18:08:20 33° NNE 18:13:56 10° E daylight
22 Sep - 20:15:54 10° WNW 20:22:23 46° SW 20:26:40 10° SE visible
23 Sep - 05:17:42 10° SSW 05:26:36 36° SE 05:40:42 10° E visible
23 Sep - 07:29:51 10° WSW 07:42:48 84° NW 08:02:56 10° NE daylight
23 Sep - 09:46:54 10° W 10:02:25 39° NNW 10:20:39 10° NE daylight
23 Sep - 12:12:24 10° NW 12:25:18 20° NNW 12:37:02 10° NNE daylight
23 Sep - 14:40:27 10° NNW 14:49:02 15° N 14:55:57 10° NE daylight
23 Sep - 16:59:01 10° NNW 17:08:48 26° NNE 17:15:10 10° ENE daylight
23 Sep - 19:15:37 10° NW 19:24:15 87° SW 19:29:17 10° SE visible
24 Sep - 04:20:56 10° S 04:27:26 21° SE 04:36:43 10° E visible
24 Sep - 06:31:28 10° SW 06:42:35 75° SE 07:01:15 10° ENE daylight
24 Sep - 08:46:27 10° W 09:00:51 49° NNW 09:20:13 10° NE daylight
24 Sep - 11:08:31 10° WNW 11:22:47 24° NNW 11:37:06 10° NNE daylight
24 Sep - 13:37:06 10° NNW 13:47:08 16° N 13:55:32 10° NNE daylight
24 Sep - 15:58:17 10° NNW 16:08:41 23° NNE 16:15:52 10° ENE daylight
24 Sep - 18:15:17 10° NW 18:25:39 59° NNE 18:31:30 10° ESE visible
24 Sep - 20:34:01 10° W 20:38:47 21° SW 20:42:22 10° S visible
25 Sep - 03:26:42 10° SSE 03:28:23 11° SE 03:30:12 10° SE visible
25 Sep - 05:33:39 10° SW 05:43:00 53° SE 05:58:59 10° ENE daylight
25 Sep - 07:46:56 10° WSW 07:59:46 62° NNW 08:19:20 10° NE daylight
25 Sep - 10:06:00 10° WNW 10:20:29 30° NNW 10:36:52 10° NNE daylight
25 Sep - 12:33:02 10° NW 12:44:38 17° N 12:54:59 10° NNE daylight
25 Sep - 14:56:58 10° NNW 15:07:53 20° NNE 15:15:57 10° NE daylight
25 Sep - 17:14:46 10° NW 17:26:29 43° NNE 17:33:17 10° E daylight
25 Sep - 19:32:50 10° WNW 19:40:46 44° SW 19:45:40 10° SSE visible
26 Sep - 04:36:23 10° SSW 04:43:55 34° SE 04:56:08 10° E visible
26 Sep - 06:48:09 10° WSW 06:59:16 79° NW 07:18:02 10° NE daylight
26 Sep - 09:04:46 10° W 09:18:34 36° NNW 09:36:19 10° NE daylight
26 Sep - 11:29:04 10° NW 11:41:52 20° N 11:54:18 10° NNE daylight
26 Sep - 13:54:57 10° NNW 14:06:22 19° N 14:15:24 10° NE daylight
26 Sep - 16:14:00 10° NW 16:26:42 34° NNE 16:34:34 10° E daylight
26 Sep - 18:31:53 10° WNW 18:42:29 78° SW 18:48:22 10° SE visible
27 Sep - 03:39:53 10° S 03:45:10 19° SE 03:52:31 10° E visible
27 Sep - 05:49:59 10° SW 05:59:27 79° SE 06:16:20 10° ENE daylight
27 Sep - 08:04:38 10° W 08:17:10 45° NNW 08:35:28 10° NE daylight
27 Sep - 10:25:55 10° WNW 10:39:10 23° NNW 10:53:31 10° NNE daylight
27 Sep - 12:52:17 10° NW 13:04:08 18° N 13:14:17 10° NE daylight
27 Sep - 15:12:57 10° NNW 15:26:17 28° NNE 15:35:14 10° ENE daylight
27 Sep - 17:30:57 10° NW 17:43:41 71° NNE 17:50:37 10° ESE daylight
27 Sep - 19:51:06 10° W 19:57:06 22° SW 20:01:20 10° S visible
